Time,TemperatureF,DewpointF,PressureIn,WindDirection,WindDirectionDegrees,WindSpeedMPH,WindSpeedGustMPH,Humidity,HourlyPrecipIn,Conditions,Clouds,dailyrainin,SoftwareType,DateUTC
2013-07-19 00:01:00,70.2,66.4,29.84,SE,135,0.0,3.1,88,0.00,,,0.00,WUHU216HW,2013-07-19 04:01:00,
2013-07-19 00:06:00,70.2,66.8,29.84,NW,315,1.3,1.3,89,0.00,,,0.00,WUHU216HW,2013-07-19 04:06:00,
2013-07-19 00:11:00,70.0,66.6,29.84,WNW,293,1.1,1.8,89,0.00,,,0.00,WUHU216HW,2013-07-19 04:11:00,
2013-07-19 00:16:00,69.8,66.4,29.83,West,270,1.1,1.8,89,0.00,,,0.00,WUHU216HW,2013-07-19 04:16:00,
2013-07-19 00:21:00,69.8,66.4,29.83,West,270,0.0,1.3,89,0.00,,,0.00,WUHU216HW,2013-07-19 04:21:00,
2013-07-19 00:26:00,69.8,66.4,29.83,West,270,0.0,1.3,89,0.00,,,0.00,WUHU216HW,2013-07-19 04:26:00,
2013-07-19 00:31:00,69.8,66.4,29.83,West,270,0.7,1.6,89,0.00,,,0.00,WUHU216HW,2013-07-19 04:31:00,
2013-07-19 00:36:00,69.8,66.4,29.83,NE,45,1.1,1.6,89,0.00,,,0.00,WUHU216HW,2013-07-19 04:36:00,
2013-07-19 00:41:00,69.8,66.4,29.83,NW,315,0.0,1.3,89,0.00,,,0.00,WUHU216HW,2013-07-19 04:41:00,
2013-07-19 00:46:00,69.7,66.2,29.82,NW,315,0.0,1.3,89,0.00,,,0.00,WUHU216HW,2013-07-19 04:46:00,
2013-07-19 00:51:00,69.5,66.1,29.82,WNW,293,0.7,1.1,89,0.00,,,0.00,WUHU216HW,2013-07-19 04:51:00,
2013-07-19 00:56:00,69.5,66.1,29.82,NNW,338,0.7,0.9,89,0.00,,,0.00,WUHU216HW,2013-07-19 04:56:00,
2013-07-19 01:01:00,69.3,65.9,29.83,NW,315,0.4,1.1,89,0.00,,,0.00,WUHU216HW,2013-07-19 05:01:00,
2013-07-19 01:06:00,69.3,65.9,29.82,NW,315,0.0,1.1,89,0.00,,,0.00,WUHU216HW,2013-07-19 05:06:00,
2013-07-19 01:11:00,69.1,66.1,29.82,NNE,23,1.1,1.1,90,0.00,,,0.00,WUHU216HW,2013-07-19 05:11:00,
2013-07-19 01:16:00,69.1,66.1,29.82,North,0,0.0,1.6,90,0.00,,,0.00,WUHU216HW,2013-07-19 05:16:00,
2013-07-19 01:21:00,68.9,65.9,29.82,North,0,0.0,1.6,90,0.00,,,0.00,WUHU216HW,2013-07-19 05:21:00,
2013-07-19 01:26:00,68.9,65.9,29.81,ENE,68,1.1,1.1,90,0.00,,,0.00,WUHU216HW,2013-07-19 05:26:00,
2013-07-19 01:31:00,68.9,65.9,29.81,SE,135,1.8,1.8,90,0.00,,,0.00,WUHU216HW,2013-07-19 05:31:00,
2013-07-19 01:36:00,68.9,65.9,29.81,SSE,158,0.4,1.8,90,0.00,,,0.00,WUHU216HW,2013-07-19 05:36:00,
2013-07-19 01:41:00,68.9,65.9,29.81,WSW,248,0.4,1.8,90,0.00,,,0.00,WUHU216HW,2013-07-19 05:41:00,
2013-07-19 01:46:00,68.9,65.9,29.81,NNW,338,0.0,1.1,90,0.00,,,0.00,WUHU216HW,2013-07-19 05:46:00,
2013-07-19 01:51:00,68.8,65.7,29.81,NNW,338,0.4,0.7,90,0.00,,,0.00,WUHU216HW,2013-07-19 05:51:00,
2013-07-19 01:56:00,68.6,65.5,29.81,NNE,23,1.1,1.3,90,0.00,,,0.00,WUHU216HW,2013-07-19 05:56:00,
2013-07-19 02:01:00,68.6,65.5,29.80,NNW,338,0.0,1.8,90,0.00,,,0.00,WUHU216HW,2013-07-19 06:01:00,
2013-07-19 02:06:00,68.6,65.5,29.81,North,0,0.0,1.8,90,0.00,,,0.00,WUHU216HW,2013-07-19 06:06:00,
2013-07-19 02:11:00,68.8,65.7,29.81,NNW,338,0.9,1.1,90,0.00,,,0.00,WUHU216HW,2013-07-19 06:11:00,
2013-07-19 02:16:00,68.8,65.7,29.80,South,180,3.6,3.6,90,0.00,,,0.00,WUHU216HW,2013-07-19 06:16:00,
2013-07-19 02:21:00,68.9,65.9,29.80,SSE,158,3.6,4.5,90,0.00,,,0.00,WUHU216HW,2013-07-19 06:21:00,
2013-07-19 02:26:00,69.1,66.1,29.80,South,180,5.6,5.6,90,0.00,,,0.00,WUHU216HW,2013-07-19 06:26:00,
2013-07-19 02:31:00,69.5,66.4,29.80,SSW,203,4.7,6.0,90,0.00,,,0.00,WUHU216HW,2013-07-19 06:31:00,
2013-07-19 02:36:00,69.5,66.4,29.80,South,180,4.7,6.7,90,0.00,,,0.00,WUHU216HW,2013-07-19 06:36:00,
2013-07-19 02:41:00,69.5,66.4,29.80,South,180,4.0,6.7,90,0.00,,,0.00,WUHU216HW,2013-07-19 06:41:00,
2013-07-19 02:46:00,69.7,66.6,29.80,South,180,3.8,5.4,90,0.00,,,0.00,WUHU216HW,2013-07-19 06:46:00,
2013-07-19 02:51:00,69.7,66.6,29.79,South,180,4.9,4.9,90,0.00,,,0.00,WUHU216HW,2013-07-19 06:51:00,
2013-07-19 02:56:00,69.7,66.6,29.79,SSE,158,3.8,4.9,90,0.00,,,0.00,WUHU216HW,2013-07-19 06:56:00,
2013-07-19 03:01:00,69.7,66.6,29.79,South,180,4.7,4.9,90,0.00,,,0.00,WUHU216HW,2013-07-19 07:01:00,
2013-07-19 03:06:00,69.8,66.8,29.79,South,180,4.5,5.8,90,0.00,,,0.00,WUHU216HW,2013-07-19 07:06:00,
2013-07-19 03:11:00,69.8,66.8,29.78,South,180,4.7,6.5,90,0.00,,,0.00,WUHU216HW,2013-07-19 07:11:00,
2013-07-19 03:16:00,69.8,67.1,29.78,South,180,5.1,6.5,91,0.00,,,0.00,WUHU216HW,2013-07-19 07:16:00,
2013-07-19 03:21:00,69.8,67.1,29.78,SSW,203,4.7,6.3,91,0.00,,,0.00,WUHU216HW,2013-07-19 07:21:00,
2013-07-19 03:26:00,69.8,67.1,29.77,South,180,4.0,6.3,91,0.00,,,0.00,WUHU216HW,2013-07-19 07:26:00,
2013-07-19 03:31:00,69.8,66.8,29.77,South,180,4.5,6.0,90,0.00,,,0.00,WUHU216HW,2013-07-19 07:31:00,
2013-07-19 03:36:00,69.8,66.8,29.77,SSW,203,4.5,6.0,90,0.00,,,0.00,WUHU216HW,2013-07-19 07:36:00,
2013-07-19 03:41:00,69.8,67.1,29.76,SSW,203,4.0,5.1,91,0.00,,,0.00,WUHU216HW,2013-07-19 07:41:00,
2013-07-19 03:46:00,69.7,66.9,29.77,South,180,6.0,6.0,91,0.00,,,0.00,WUHU216HW,2013-07-19 07:46:00,
2013-07-19 03:51:00,69.7,66.9,29.76,SSW,203,3.4,6.0,91,0.00,,,0.00,WUHU216HW,2013-07-19 07:51:00,
2013-07-19 03:56:00,69.7,66.9,29.76,South,180,4.5,6.0,91,0.00,,,0.00,WUHU216HW,2013-07-19 07:56:00,
2013-07-19 04:01:00,69.5,66.7,29.76,SW,225,1.6,5.4,91,0.00,,,0.00,WUHU216HW,2013-07-19 08:01:00,
2013-07-19 04:06:00,69.5,66.7,29.76,SSW,203,4.5,5.4,91,0.00,,,0.00,WUHU216HW,2013-07-19 08:06:00,
2013-07-19 04:11:00,69.5,66.7,29.76,SSW,203,5.1,6.7,91,0.00,,,0.00,WUHU216HW,2013-07-19 08:11:00,
2013-07-19 04:16:00,69.3,66.5,29.76,SSW,203,3.8,6.7,91,0.00,,,0.00,WUHU216HW,2013-07-19 08:16:00,
2013-07-19 04:21:00,69.3,66.5,29.76,SSW,203,2.7,5.6,91,0.00,,,0.00,WUHU216HW,2013-07-19 08:21:00,
2013-07-19 04:26:00,69.1,66.3,29.76,SSW,203,1.8,5.4,91,0.00,,,0.00,WUHU216HW,2013-07-19 08:26:00,
2013-07-19 04:31:00,69.1,66.3,29.76,SSW,203,3.4,4.0,91,0.00,,,0.00,WUHU216HW,2013-07-19 08:31:00,
2013-07-19 04:36:00,68.9,66.2,29.75,SSW,203,1.8,3.6,91,0.00,,,0.00,WUHU216HW,2013-07-19 08:36:00,
2013-07-19 04:41:00,68.8,66.0,29.75,South,180,3.1,3.6,91,0.00,,,0.00,WUHU216HW,2013-07-19 08:41:00,
2013-07-19 04:46:00,68.8,66.0,29.75,South,180,2.7,4.3,91,0.00,,,0.00,WUHU216HW,2013-07-19 08:46:00,
2013-07-19 04:51:00,68.8,66.0,29.76,South,180,4.3,5.8,91,0.00,,,0.00,WUHU216HW,2013-07-19 08:51:00,
2013-07-19 04:56:00,68.8,66.0,29.75,SSE,158,3.4,5.8,91,0.00,,,0.00,WUHU216HW,2013-07-19 08:56:00,
2013-07-19 05:01:00,68.8,66.0,29.75,South,180,2.5,4.9,91,0.00,,,0.00,WUHU216HW,2013-07-19 09:01:00,
2013-07-19 05:06:00,68.8,66.0,29.75,SSE,158,1.8,4.9,91,0.00,,,0.00,WUHU216HW,2013-07-19 09:06:00,
2013-07-19 05:11:00,68.8,66.0,29.75,SE,135,1.8,3.4,91,0.00,,,0.00,WUHU216HW,2013-07-19 09:11:00,
2013-07-19 05:16:00,68.8,66.0,29.76,South,180,2.2,3.4,91,0.00,,,0.00,WUHU216HW,2013-07-19 09:16:00,
2013-07-19 05:21:00,68.8,66.0,29.75,South,180,2.9,2.9,91,0.00,,,0.00,WUHU216HW,2013-07-19 09:21:00,
2013-07-19 05:26:00,68.8,66.0,29.75,SSE,158,4.3,4.5,91,0.00,,,0.00,WUHU216HW,2013-07-19 09:26:00,
2013-07-19 05:31:00,68.8,66.0,29.76,SSE,158,2.5,4.5,91,0.00,,,0.00,WUHU216HW,2013-07-19 09:31:00,
2013-07-19 05:36:00,68.8,66.0,29.75,South,180,5.1,5.1,91,0.00,,,0.00,WUHU216HW,2013-07-19 09:36:00,
2013-07-19 05:41:00,68.9,66.2,29.75,SSE,158,2.5,5.1,91,0.00,,,0.00,WUHU216HW,2013-07-19 09:41:00,
2013-07-19 05:46:00,69.1,66.3,29.76,SW,225,2.0,6.0,91,0.00,,,0.00,WUHU216HW,2013-07-19 09:46:00,
2013-07-19 05:51:00,69.5,66.7,29.76,SSE,158,4.5,6.5,91,0.00,,,0.00,WUHU216HW,2013-07-19 09:51:00,
2013-07-19 05:56:00,70.0,67.2,29.76,South,180,4.0,6.5,91,0.00,,,0.00,WUHU216HW,2013-07-19 09:56:00,
2013-07-19 06:01:00,70.2,67.4,29.76,South,180,4.9,5.8,91,0.00,,,0.00,WUHU216HW,2013-07-19 10:01:00,
2013-07-19 06:06:00,70.2,67.1,29.76,SSW,203,4.5,6.9,90,0.00,,,0.00,WUHU216HW,2013-07-19 10:06:00,
2013-07-19 06:11:00,70.4,67.3,29.76,South,180,3.6,6.9,90,0.00,,,0.00,WUHU216HW,2013-07-19 10:11:00,
2013-07-19 06:16:00,70.6,67.5,29.76,South,180,4.3,6.9,90,0.00,,,0.00,WUHU216HW,2013-07-19 10:16:00,
2013-07-19 06:21:00,70.7,67.7,29.75,SSW,203,0.2,6.9,90,0.00,,,0.00,WUHU216HW,2013-07-19 10:21:00,
2013-07-19 06:26:00,70.9,67.5,29.76,South,180,0.0,4.9,89,0.00,,,0.00,WUHU216HW,2013-07-19 10:26:00,
2013-07-19 06:31:00,71.1,67.7,29.75,South,180,5.8,5.8,89,0.00,,,0.00,WUHU216HW,2013-07-19 10:31:00,
2013-07-19 06:36:00,71.5,68.0,29.76,SE,135,2.0,7.8,89,0.00,,,0.00,WUHU216HW,2013-07-19 10:36:00,
2013-07-19 06:41:00,72.4,68.6,29.75,SSE,158,4.3,7.8,88,0.00,,,0.00,WUHU216HW,2013-07-19 10:41:00,
2013-07-19 06:46:00,72.7,68.9,29.75,SSW,203,1.8,5.4,88,0.00,,,0.00,WUHU216HW,2013-07-19 10:46:00,
2013-07-19 06:51:00,72.7,68.7,29.75,ESE,113,5.4,6.5,87,0.00,,,0.00,WUHU216HW,2013-07-19 10:51:00,
2013-07-19 06:56:00,72.4,68.3,29.75,SE,135,1.6,6.5,87,0.00,,,0.00,WUHU216HW,2013-07-19 10:56:00,
2013-07-19 07:01:00,72.2,68.1,29.75,East,90,2.2,4.9,87,0.00,,,0.00,WUHU216HW,2013-07-19 11:01:00,
2013-07-19 07:06:00,72.0,68.0,29.75,SE,135,2.2,4.9,87,0.00,,,0.00,WUHU216HW,2013-07-19 11:06:00,
2013-07-19 07:11:00,72.0,68.0,29.74,SE,135,4.0,4.7,87,0.00,,,0.00,WUHU216HW,2013-07-19 11:11:00,
2013-07-19 07:16:00,72.0,68.0,29.74,ESE,113,1.1,4.7,87,0.00,,,0.00,WUHU216HW,2013-07-19 11:16:00,
2013-07-19 07:17:00,72.0,68.0,29.74,ESE,113,1.1,4.7,87,0.00,,,0.00,WUHU216HW,2013-07-19 11:17:00,
2013-07-19 07:22:00,72.4,68.3,29.74,ESE,113,1.3,6.3,87,0.00,,,0.00,WUHU216HW,2013-07-19 11:22:00,
2013-07-19 07:27:00,72.5,68.5,29.74,ENE,68,2.0,6.3,87,0.00,,,0.00,WUHU216HW,2013-07-19 11:27:00,
2013-07-19 07:32:00,73.1,69.0,29.74,South,180,1.8,4.7,87,0.00,,,0.00,WUHU216HW,2013-07-19 11:32:00,
2013-07-19 07:37:00,74.0,69.6,29.73,NE,45,2.9,3.6,86,0.00,,,0.00,WUHU216HW,2013-07-19 11:37:00,
2013-07-19 07:42:00,74.5,69.8,29.73,SE,135,3.1,3.6,85,0.00,,,0.00,WUHU216HW,2013-07-19 11:42:00,
2013-07-19 07:47:00,74.9,70.1,29.73,SSW,203,3.1,4.7,85,0.00,,,0.00,WUHU216HW,2013-07-19 11:47:00,
2013-07-19 07:52:00,74.5,69.4,29.73,SSE,158,5.6,8.5,84,0.00,,,0.00,WUHU216HW,2013-07-19 11:52:00,
2013-07-19 07:57:00,74.3,69.2,29.73,SSE,158,5.4,8.5,84,0.00,,,0.00,WUHU216HW,2013-07-19 11:57:00,
2013-07-19 08:02:00,74.5,69.8,29.73,SE,135,5.4,7.2,85,0.00,,,0.00,WUHU216HW,2013-07-19 12:02:00,
2013-07-19 08:07:00,74.5,69.4,29.73,East,90,4.9,7.2,84,0.00,,,0.00,WUHU216HW,2013-07-19 12:07:00,
2013-07-19 08:12:00,74.7,69.6,29.73,ESE,113,6.3,7.4,84,0.00,,,0.00,WUHU216HW,2013-07-19 12:12:00,
2013-07-19 08:17:00,75.4,70.3,29.73,ESE,113,1.8,7.4,84,0.00,,,0.00,WUHU216HW,2013-07-19 12:17:00,
2013-07-19 08:22:00,76.1,71.0,29.73,SE,135,5.6,8.1,84,0.00,,,0.00,WUHU216HW,2013-07-19 12:22:00,
2013-07-19 08:27:00,76.7,71.1,29.72,SE,135,4.7,8.1,83,0.00,,,0.00,WUHU216HW,2013-07-19 12:27:00,
2013-07-19 08:32:00,76.7,70.4,29.72,ESE,113,7.8,9.8,81,0.00,,,0.00,WUHU216HW,2013-07-19 12:32:00,
2013-07-19 08:37:00,77.2,71.3,29.72,ESE,113,3.6,9.8,82,0.00,,,0.00,WUHU216HW,2013-07-19 12:37:00,
2013-07-19 08:42:00,78.5,72.2,29.72,SE,135,4.5,8.3,81,0.00,,,0.00,WUHU216HW,2013-07-19 12:42:00,
2013-07-19 08:47:00,79.2,72.5,29.72,ENE,68,3.1,6.9,80,0.00,,,0.00,WUHU216HW,2013-07-19 12:47:00,
2013-07-19 08:52:00,79.9,72.5,29.72,ESE,113,3.8,9.6,78,0.00,,,0.00,WUHU216HW,2013-07-19 12:52:00,
2013-07-19 08:57:00,80.3,72.8,29.72,SE,135,1.1,9.6,78,0.00,,,0.00,WUHU216HW,2013-07-19 12:57:00,
2013-07-19 09:02:00,80.8,73.0,29.71,South,180,3.1,8.5,77,0.00,,,0.00,WUHU216HW,2013-07-19 13:02:00,
2013-07-19 09:07:00,81.2,72.9,29.71,SSE,158,4.0,8.5,76,0.00,,,0.00,WUHU216HW,2013-07-19 13:07:00,
2013-07-19 09:12:00,81.5,73.3,29.71,SSE,158,7.4,8.5,76,0.00,,,0.00,WUHU216HW,2013-07-19 13:12:00,
2013-07-19 09:17:00,81.7,73.5,29.71,SSW,203,4.3,11.2,76,0.00,,,0.00,WUHU216HW,2013-07-19 13:17:00,
2013-07-19 09:22:00,82.3,73.2,29.71,SE,135,6.9,11.2,74,0.00,,,0.00,WUHU216HW,2013-07-19 13:22:00,
2013-07-19 09:26:00,82.8,74.4,29.70,ESE,113,6.7,13.9,76,0.00,,,0.00,WUHU216HW,2013-07-19 13:26:00,
2013-07-19 09:31:00,83.3,74.2,29.70,South,180,8.3,13.9,74,0.00,,,0.00,WUHU216HW,2013-07-19 13:31:00,
2013-07-19 09:36:00,83.5,73.9,29.70,SSE,158,5.4,12.1,73,0.00,,,0.00,WUHU216HW,2013-07-19 13:36:00,
2013-07-19 09:41:00,83.9,73.9,29.70,SSW,203,7.6,12.1,72,0.00,,,0.00,WUHU216HW,2013-07-19 13:41:00,
2013-07-19 09:46:00,84.4,74.4,29.69,SSE,158,8.5,11.4,72,0.00,,,0.00,WUHU216HW,2013-07-19 13:46:00,
2013-07-19 09:51:00,84.8,73.5,29.69,South,180,6.9,11.4,69,0.00,,,0.00,WUHU216HW,2013-07-19 13:51:00,
2013-07-19 09:56:00,85.0,73.7,29.69,SSW,203,5.4,8.5,69,0.00,,,0.00,WUHU216HW,2013-07-19 13:56:00,
2013-07-19 10:01:00,85.0,73.7,29.68,SSW,203,5.6,14.3,69,0.00,,,0.00,WUHU216HW,2013-07-19 14:01:00,
2013-07-19 10:06:00,85.3,73.6,29.68,SW,225,11.6,14.3,68,0.00,,,0.00,WUHU216HW,2013-07-19 14:06:00,
2013-07-19 10:11:00,85.9,73.6,29.68,SW,225,6.0,11.6,67,0.00,,,0.00,WUHU216HW,2013-07-19 14:11:00,
2013-07-19 10:16:00,86.0,73.8,29.68,SSW,203,10.3,11.6,67,0.00,,,0.00,WUHU216HW,2013-07-19 14:16:00,
2013-07-19 10:21:00,86.8,74.1,29.67,SSW,203,5.4,11.2,66,0.00,,,0.00,WUHU216HW,2013-07-19 14:21:00,
2013-07-19 10:26:00,87.1,73.9,29.67,South,180,6.9,11.2,65,0.00,,,0.00,WUHU216HW,2013-07-19 14:26:00,
2013-07-19 10:31:00,87.1,73.4,29.67,SSW,203,6.5,11.9,64,0.00,,,0.00,WUHU216HW,2013-07-19 14:31:00,
2013-07-19 10:36:00,86.9,73.3,29.67,SSW,203,4.9,11.9,64,0.00,,,0.00,WUHU216HW,2013-07-19 14:36:00,
2013-07-19 10:41:00,87.3,73.6,29.67,SSE,158,8.9,11.6,64,0.00,,,0.00,WUHU216HW,2013-07-19 14:41:00,
2013-07-19 10:46:00,87.5,73.4,29.67,SW,225,10.3,15.0,63,0.00,,,0.00,WUHU216HW,2013-07-19 14:46:00,
2013-07-19 10:51:00,87.8,73.7,29.66,South,180,3.4,16.6,63,0.00,,,0.00,WUHU216HW,2013-07-19 14:51:00,
2013-07-19 10:56:00,88.2,73.2,29.66,South,180,9.8,16.6,61,0.00,,,0.00,WUHU216HW,2013-07-19 14:56:00,
2013-07-19 11:01:00,87.7,73.1,29.66,SSW,203,15.7,15.7,62,0.00,,,0.00,WUHU216HW,2013-07-19 15:01:00,
2013-07-19 11:06:00,87.1,72.5,29.66,South,180,15.0,15.7,62,0.00,,,0.00,WUHU216HW,2013-07-19 15:06:00,
2013-07-19 11:11:00,86.9,72.8,29.66,SSW,203,17.2,17.2,63,0.00,,,0.00,WUHU216HW,2013-07-19 15:11:00,
2013-07-19 11:16:00,87.3,73.2,29.66,SSW,203,13.2,17.2,63,0.00,,,0.00,WUHU216HW,2013-07-19 15:16:00,
2013-07-19 11:21:00,88.0,73.5,29.66,SSW,203,15.9,18.1,62,0.00,,,0.00,WUHU216HW,2013-07-19 15:21:00,
2013-07-19 11:26:00,88.6,73.9,29.66,South,180,9.6,18.1,62,0.00,,,0.00,WUHU216HW,2013-07-19 15:26:00,
2013-07-19 11:31:00,88.4,73.3,29.65,SSW,203,7.6,17.7,61,0.00,,,0.00,WUHU216HW,2013-07-19 15:31:00,
2013-07-19 11:36:00,87.8,73.3,29.65,SE,135,3.4,17.7,62,0.00,,,0.00,WUHU216HW,2013-07-19 15:36:00,
2013-07-19 11:41:00,88.0,73.5,29.65,SSW,203,9.8,13.4,62,0.00,,,0.00,WUHU216HW,2013-07-19 15:41:00,
2013-07-19 11:46:00,88.6,73.4,29.64,South,180,8.7,14.3,61,0.00,,,0.00,WUHU216HW,2013-07-19 15:46:00,
2013-07-19 11:51:00,89.1,74.0,29.64,SSW,203,7.2,14.3,61,0.00,,,0.00,WUHU216HW,2013-07-19 15:51:00,
2013-07-19 11:56:00,89.1,73.5,29.64,SSW,203,6.9,15.7,60,0.00,,,0.00,WUHU216HW,2013-07-19 15:56:00,
2013-07-19 12:01:00,89.3,73.1,29.64,SW,225,5.6,17.2,59,0.00,,,0.00,WUHU216HW,2013-07-19 16:01:00,
2013-07-19 12:06:00,89.6,74.0,29.63,SSW,203,7.6,17.2,60,0.00,,,0.00,WUHU216HW,2013-07-19 16:06:00,
2013-07-19 12:11:00,90.0,73.3,29.64,SSW,203,6.9,13.6,58,0.00,,,0.00,WUHU216HW,2013-07-19 16:11:00,
2013-07-19 12:16:00,89.6,74.0,29.63,SSW,203,6.9,15.4,60,0.00,,,0.00,WUHU216HW,2013-07-19 16:16:00,
2013-07-19 12:21:00,89.6,73.4,29.63,South,180,7.6,15.4,59,0.00,,,0.00,WUHU216HW,2013-07-19 16:21:00,
2013-07-19 12:26:00,89.5,73.8,29.63,SSE,158,12.8,14.5,60,0.00,,,0.00,WUHU216HW,2013-07-19 16:26:00,
2013-07-19 12:31:00,88.9,73.8,29.63,South,180,10.7,12.8,61,0.00,,,0.00,WUHU216HW,2013-07-19 16:31:00,
2013-07-19 12:36:00,88.4,72.3,29.63,SW,225,11.4,14.1,59,0.00,,,0.00,WUHU216HW,2013-07-19 16:36:00,
2013-07-19 12:41:00,88.4,72.8,29.62,South,180,9.4,14.1,60,0.00,,,0.00,WUHU216HW,2013-07-19 16:41:00,
2013-07-19 12:46:00,89.1,72.5,29.62,SSW,203,6.9,13.9,58,0.00,,,0.00,WUHU216HW,2013-07-19 16:46:00,
2013-07-19 12:51:00,90.0,71.1,29.62,WSW,248,4.9,15.7,54,0.00,,,0.00,WUHU216HW,2013-07-19 16:51:00,
2013-07-19 12:56:00,90.5,72.1,29.62,West,270,4.5,15.7,55,0.00,,,0.00,WUHU216HW,2013-07-19 16:56:00,
2013-07-19 13:01:00,90.7,71.2,29.62,SSW,203,7.4,12.8,53,0.00,,,0.00,WUHU216HW,2013-07-19 17:01:00,
2013-07-19 13:06:00,90.4,70.3,29.62,SW,225,10.1,17.7,52,0.00,,,0.00,WUHU216HW,2013-07-19 17:06:00,
2013-07-19 13:11:00,90.7,71.2,29.62,WSW,248,2.9,17.7,53,0.00,,,0.00,WUHU216HW,2013-07-19 17:11:00,
2013-07-19 13:16:00,91.4,70.7,29.62,SSW,203,10.5,12.1,51,0.00,,,0.00,WUHU216HW,2013-07-19 17:16:00,
2013-07-19 13:21:00,90.9,70.8,29.62,SW,225,6.7,12.3,52,0.00,,,0.00,WUHU216HW,2013-07-19 17:21:00,
2013-07-19 13:26:00,91.1,70.4,29.62,SSW,203,16.3,16.3,51,0.00,,,0.00,WUHU216HW,2013-07-19 17:26:00,
2013-07-19 13:31:00,91.4,70.7,29.61,SSE,158,6.7,16.3,51,0.00,,,0.00,WUHU216HW,2013-07-19 17:31:00,
2013-07-19 13:36:00,91.6,70.9,29.61,WSW,248,8.3,16.3,51,0.00,,,0.00,WUHU216HW,2013-07-19 17:36:00,
2013-07-19 13:41:00,91.4,71.3,29.61,WSW,248,3.4,11.4,52,0.00,,,0.00,WUHU216HW,2013-07-19 17:41:00,
2013-07-19 13:46:00,91.8,71.1,29.60,South,180,3.1,11.4,51,0.00,,,0.00,WUHU216HW,2013-07-19 17:46:00,
2013-07-19 13:51:00,92.2,71.4,29.60,SSE,158,3.6,10.1,51,0.00,,,0.00,WUHU216HW,2013-07-19 17:51:00,
2013-07-19 13:56:00,92.7,70.7,29.60,South,180,5.4,9.2,49,0.00,,,0.00,WUHU216HW,2013-07-19 17:56:00,
2013-07-19 14:01:00,92.5,69.8,29.59,SSW,203,6.9,12.8,48,0.00,,,0.00,WUHU216HW,2013-07-19 18:01:00,
2013-07-19 14:06:00,92.7,70.7,29.59,SSW,203,4.5,12.8,49,0.00,,,0.00,WUHU216HW,2013-07-19 18:06:00,
2013-07-19 14:11:00,93.1,71.6,29.59,SW,225,3.8,10.5,50,0.00,,,0.00,WUHU216HW,2013-07-19 18:11:00,
2013-07-19 14:16:00,92.9,69.6,29.59,SSW,203,11.6,11.6,47,0.00,,,0.00,WUHU216HW,2013-07-19 18:16:00,
2013-07-19 14:21:00,93.1,69.8,29.58,South,180,14.3,14.3,47,0.00,,,0.00,WUHU216HW,2013-07-19 18:21:00,
2013-07-19 14:26:00,93.1,70.4,29.58,SSW,203,6.3,14.8,48,0.00,,,0.00,WUHU216HW,2013-07-19 18:26:00,
2013-07-19 14:31:00,93.2,69.8,29.58,SW,225,6.0,14.8,47,0.00,,,0.00,WUHU216HW,2013-07-19 18:31:00,
2013-07-19 14:36:00,93.1,69.8,29.57,South,180,6.3,14.5,47,0.00,,,0.00,WUHU216HW,2013-07-19 18:36:00,
2013-07-19 14:41:00,92.7,69.4,29.57,SW,225,10.5,16.3,47,0.00,,,0.00,WUHU216HW,2013-07-19 18:41:00,
2013-07-19 14:46:00,92.9,70.2,29.57,WSW,248,7.6,16.6,48,0.00,,,0.00,WUHU216HW,2013-07-19 18:46:00,
2013-07-19 14:51:00,92.7,69.4,29.57,SSE,158,9.8,16.6,47,0.00,,,0.00,WUHU216HW,2013-07-19 18:51:00,
2013-07-19 14:56:00,92.2,69.6,29.57,SSW,203,5.8,17.7,48,0.00,,,0.00,WUHU216HW,2013-07-19 18:56:00,
2013-07-19 15:01:00,92.5,69.2,29.56,SSE,158,16.3,17.7,47,0.00,,,0.00,WUHU216HW,2013-07-19 19:01:00,
2013-07-19 15:06:00,92.3,69.8,29.56,SW,225,7.8,17.4,48,0.00,,,0.00,WUHU216HW,2013-07-19 19:06:00,
2013-07-19 15:11:00,92.5,69.8,29.56,SSW,203,10.3,17.4,48,0.00,,,0.00,WUHU216HW,2013-07-19 19:11:00,
2013-07-19 15:16:00,92.7,70.0,29.56,SSE,158,7.2,14.8,48,0.00,,,0.00,WUHU216HW,2013-07-19 19:16:00,
2013-07-19 15:21:00,92.5,69.2,29.56,South,180,13.4,16.3,47,0.00,,,0.00,WUHU216HW,2013-07-19 19:21:00,
2013-07-19 15:26:00,92.5,70.6,29.56,SSW,203,8.7,16.3,49,0.00,,,0.00,WUHU216HW,2013-07-19 19:26:00,
2013-07-19 15:31:00,92.5,69.8,29.55,South,180,5.6,15.0,48,0.00,,,0.00,WUHU216HW,2013-07-19 19:31:00,
2013-07-19 15:36:00,92.7,70.7,29.55,SW,225,4.0,15.0,49,0.00,,,0.00,WUHU216HW,2013-07-19 19:36:00,
2013-07-19 15:41:00,92.5,71.7,29.55,SE,135,4.0,13.4,51,0.00,,,0.00,WUHU216HW,2013-07-19 19:41:00,
2013-07-19 15:46:00,92.7,72.5,29.55,WSW,248,2.0,10.5,52,0.00,,,0.00,WUHU216HW,2013-07-19 19:46:00,
2013-07-19 15:51:00,92.9,71.5,29.55,SSW,203,10.1,11.6,50,0.00,,,0.00,WUHU216HW,2013-07-19 19:51:00,
2013-07-19 15:56:00,92.9,71.5,29.55,SSW,203,9.8,11.6,50,0.00,,,0.00,WUHU216HW,2013-07-19 19:56:00,
2013-07-19 16:01:00,92.9,70.8,29.55,WSW,248,3.4,10.5,49,0.00,,,0.00,WUHU216HW,2013-07-19 20:01:00,
2013-07-19 16:06:00,92.5,70.6,29.55,South,180,9.2,15.2,49,0.00,,,0.00,WUHU216HW,2013-07-19 20:06:00,
2013-07-19 16:11:00,92.7,70.7,29.55,WSW,248,9.2,15.2,49,0.00,,,0.00,WUHU216HW,2013-07-19 20:11:00,
2013-07-19 16:16:00,92.5,70.6,29.55,SSW,203,5.8,13.6,49,0.00,,,0.00,WUHU216HW,2013-07-19 20:16:00,
2013-07-19 16:21:00,92.0,70.0,29.54,SSE,158,10.1,14.1,49,0.00,,,0.00,WUHU216HW,2013-07-19 20:21:00,
2013-07-19 16:26:00,92.0,71.2,29.55,SSW,203,6.3,14.1,51,0.00,,,0.00,WUHU216HW,2013-07-19 20:26:00,
2013-07-19 16:31:00,92.5,71.2,29.55,SSW,203,6.7,12.1,50,0.00,,,0.00,WUHU216HW,2013-07-19 20:31:00,
2013-07-19 16:36:00,92.7,71.4,29.55,SSW,203,5.4,11.4,50,0.00,,,0.00,WUHU216HW,2013-07-19 20:36:00,
2013-07-19 16:41:00,92.9,71.5,29.55,SSE,158,6.9,11.0,50,0.00,,,0.00,WUHU216HW,2013-07-19 20:41:00,
2013-07-19 16:46:00,92.5,71.2,29.55,South,180,6.9,13.4,50,0.00,,,0.00,WUHU216HW,2013-07-19 20:46:00,
2013-07-19 16:51:00,92.2,71.4,29.55,South,180,7.8,13.4,51,0.00,,,0.00,WUHU216HW,2013-07-19 20:51:00,
2013-07-19 16:56:00,92.7,70.7,29.54,SSW,203,9.2,16.8,49,0.00,,,0.00,WUHU216HW,2013-07-19 20:56:00,
2013-07-19 17:01:00,92.9,70.8,29.54,SSW,203,4.0,16.8,49,0.00,,,0.00,WUHU216HW,2013-07-19 21:01:00,
2013-07-19 17:06:00,92.5,72.3,29.54,SSW,203,4.7,11.2,52,0.00,,,0.00,WUHU216HW,2013-07-19 21:06:00,
2013-07-19 17:11:00,92.0,71.2,29.54,South,180,14.5,14.5,51,0.00,,,0.00,WUHU216HW,2013-07-19 21:11:00,
2013-07-19 17:16:00,92.2,71.4,29.54,SSW,203,10.1,14.5,51,0.00,,,0.00,WUHU216HW,2013-07-19 21:16:00,
2013-07-19 17:21:00,92.3,71.6,29.54,WSW,248,4.7,15.4,51,0.00,,,0.00,WUHU216HW,2013-07-19 21:21:00,
2013-07-19 17:26:00,92.2,70.8,29.54,SSW,203,7.6,15.4,50,0.00,,,0.00,WUHU216HW,2013-07-19 21:26:00,
2013-07-19 17:31:00,91.6,70.9,29.54,SSW,203,6.3,10.7,51,0.00,,,0.00,WUHU216HW,2013-07-19 21:31:00,
2013-07-19 17:36:00,91.8,71.1,29.54,WSW,248,7.8,14.5,51,0.00,,,0.00,WUHU216HW,2013-07-19 21:36:00,
2013-07-19 17:41:00,91.6,70.9,29.54,SW,225,6.0,14.5,51,0.00,,,0.00,WUHU216HW,2013-07-19 21:41:00,
2013-07-19 17:46:00,91.6,70.9,29.54,WSW,248,10.1,14.5,51,0.00,,,0.00,WUHU216HW,2013-07-19 21:46:00,
2013-07-19 17:51:00,91.4,71.3,29.54,SW,225,4.7,13.0,52,0.00,,,0.00,WUHU216HW,2013-07-19 21:51:00,
2013-07-19 17:56:00,91.4,71.3,29.54,SSE,158,4.7,12.1,52,0.00,,,0.00,WUHU216HW,2013-07-19 21:56:00,
2013-07-19 18:01:00,91.6,71.5,29.54,SW,225,3.4,12.1,52,0.00,,,0.00,WUHU216HW,2013-07-19 22:01:00,
2013-07-19 18:06:00,91.6,70.9,29.53,SSW,203,7.8,15.2,51,0.00,,,0.00,WUHU216HW,2013-07-19 22:06:00,
2013-07-19 18:11:00,91.4,71.3,29.53,SSW,203,10.5,15.2,52,0.00,,,0.00,WUHU216HW,2013-07-19 22:11:00,
2013-07-19 18:16:00,91.4,71.3,29.53,SW,225,3.4,11.4,52,0.00,,,0.00,WUHU216HW,2013-07-19 22:16:00,
2013-07-19 18:21:00,91.3,71.1,29.53,WSW,248,7.8,11.6,52,0.00,,,0.00,WUHU216HW,2013-07-19 22:21:00,
2013-07-19 18:26:00,90.5,71.0,29.54,SW,225,3.8,11.6,53,0.00,,,0.00,WUHU216HW,2013-07-19 22:26:00,
2013-07-19 18:31:00,90.2,70.7,29.54,SSW,203,3.4,11.2,53,0.00,,,0.00,WUHU216HW,2013-07-19 22:31:00,
2013-07-19 18:36:00,89.6,70.7,29.54,SSE,158,10.5,10.5,54,0.00,,,0.00,WUHU216HW,2013-07-19 22:36:00,
2013-07-19 18:41:00,89.5,70.6,29.54,SSW,203,4.3,12.3,54,0.00,,,0.00,WUHU216HW,2013-07-19 22:41:00,
2013-07-19 18:46:00,90.2,70.7,29.54,SSW,203,7.2,12.3,53,0.00,,,0.00,WUHU216HW,2013-07-19 22:46:00,
2013-07-19 18:51:00,90.7,70.7,29.54,SSW,203,7.6,12.8,52,0.00,,,0.00,WUHU216HW,2013-07-19 22:51:00,
2013-07-19 18:56:00,90.5,70.5,29.54,SW,225,3.6,12.8,52,0.00,,,0.00,WUHU216HW,2013-07-19 22:56:00,
2013-07-19 19:01:00,90.2,70.7,29.54,SSE,158,3.8,8.7,53,0.00,,,0.00,WUHU216HW,2013-07-19 23:01:00,
2013-07-19 19:06:00,88.9,70.7,29.54,SSW,203,4.7,10.3,55,0.00,,,0.00,WUHU216HW,2013-07-19 23:06:00,
2013-07-19 19:11:00,88.2,70.6,29.54,SSW,203,4.7,12.1,56,0.00,,,0.00,WUHU216HW,2013-07-19 23:11:00,
2013-07-19 19:16:00,87.5,70.4,29.54,SSW,203,6.3,12.1,57,0.00,,,0.00,WUHU216HW,2013-07-19 23:16:00,
2013-07-19 19:21:00,87.1,70.6,29.54,SW,225,4.7,9.6,58,0.00,,,0.00,WUHU216HW,2013-07-19 23:21:00,
2013-07-19 19:26:00,86.6,71.1,29.55,WSW,248,8.1,9.2,60,0.00,,,0.00,WUHU216HW,2013-07-19 23:26:00,
2013-07-19 19:31:00,85.3,70.8,29.55,SSE,158,2.9,9.2,62,0.00,,,0.00,WUHU216HW,2013-07-19 23:31:00,
2013-07-19 19:36:00,84.4,70.5,29.55,WSW,248,2.5,8.1,63,0.00,,,0.00,WUHU216HW,2013-07-19 23:36:00,
2013-07-19 19:41:00,83.7,69.8,29.55,WSW,248,3.1,5.6,63,0.00,,,0.00,WUHU216HW,2013-07-19 23:41:00,
2013-07-19 19:46:00,83.2,69.7,29.54,SW,225,1.6,4.5,64,0.00,,,0.00,WUHU216HW,2013-07-19 23:46:00,
2013-07-19 19:51:00,82.8,69.8,29.54,SSW,203,1.8,5.1,65,0.00,,,0.00,WUHU216HW,2013-07-19 23:51:00,
2013-07-19 19:56:00,82.6,69.6,29.54,SSW,203,1.3,5.4,65,0.00,,,0.00,WUHU216HW,2013-07-19 23:56:00,
2013-07-19 20:01:00,83.0,69.9,29.55,SSW,203,3.8,6.5,65,0.00,,,0.00,WUHU216HW,2013-07-20 00:01:00,
2013-07-19 20:06:00,83.2,69.7,29.54,SSW,203,1.8,6.5,64,0.00,,,0.00,WUHU216HW,2013-07-20 00:06:00,
2013-07-19 20:11:00,83.2,69.7,29.54,SSW,203,6.3,6.3,64,0.00,,,0.00,WUHU216HW,2013-07-20 00:11:00,
2013-07-19 20:16:00,83.3,69.8,29.55,South,180,6.3,8.3,64,0.00,,,0.00,WUHU216HW,2013-07-20 00:16:00,
2013-07-19 20:21:00,83.5,70.0,29.55,South,180,2.5,8.3,64,0.00,,,0.00,WUHU216HW,2013-07-20 00:21:00,
2013-07-19 20:25:00,83.5,70.0,29.56,SSW,203,4.9,8.3,64,0.00,,,0.00,WUHU216HW,2013-07-20 00:25:00,
2013-07-19 20:26:00,83.5,70.0,29.61,WNW,293,13.6,13.6,64,0.00,,,0.00,WUHU216HW,2013-07-20 00:26:00,
2013-07-19 20:27:00,83.5,70.9,29.65,WSW,248,15.0,20.4,66,0.00,,,0.00,WUHU216HW,2013-07-20 00:27:00,
2013-07-19 20:31:00,78.1,66.7,29.67,North,0,12.5,20.4,68,0.14,,,0.14,WUHU216HW,2013-07-20 00:31:00,
2013-07-19 20:32:00,74.9,66.1,29.65,NNW,338,6.3,20.4,74,0.24,,,0.23,WUHU216HW,2013-07-20 00:32:00,
2013-07-19 20:33:00,74.2,65.3,29.64,WNW,293,4.5,20.4,74,0.24,,,0.24,WUHU216HW,2013-07-20 00:33:00,
2013-07-19 20:34:00,73.1,64.7,29.63,North,0,5.1,20.4,75,0.25,,,0.25,WUHU216HW,2013-07-20 00:34:00,
2013-07-19 20:35:00,72.5,64.5,29.63,NNW,338,3.6,20.4,76,0.26,,,0.26,WUHU216HW,2013-07-20 00:35:00,
2013-07-19 20:36:00,72.0,64.4,29.63,NNW,338,6.7,20.4,77,0.26,,,0.26,WUHU216HW,2013-07-20 00:36:00,
2013-07-19 20:38:00,71.5,64.6,29.62,NNE,23,3.1,18.6,79,0.26,,,0.26,WUHU216HW,2013-07-20 00:38:00,
2013-07-19 20:39:00,71.1,64.6,29.62,North,0,4.0,18.6,80,0.26,,,0.26,WUHU216HW,2013-07-20 00:39:00,
2013-07-19 20:40:00,70.9,64.4,29.62,NNE,23,4.0,15.9,80,0.26,,,0.26,WUHU216HW,2013-07-20 00:40:00,
2013-07-19 20:41:00,70.9,64.4,29.62,ENE,68,4.0,15.9,80,0.26,,,0.26,WUHU216HW,2013-07-20 00:41:00,
2013-07-19 20:42:00,70.7,64.3,29.62,NNW,338,1.3,8.5,80,0.26,,,0.26,WUHU216HW,2013-07-20 00:42:00,
2013-07-19 20:43:00,70.6,64.1,29.61,NE,45,0.4,8.5,80,0.26,,,0.26,WUHU216HW,2013-07-20 00:43:00,
2013-07-19 20:44:00,70.6,64.1,29.61,NE,45,0.7,8.5,80,0.26,,,0.26,WUHU216HW,2013-07-20 00:44:00,
2013-07-19 20:45:00,70.4,63.9,29.61,NNE,23,4.7,8.5,80,0.26,,,0.26,WUHU216HW,2013-07-20 00:45:00,
2013-07-19 20:46:00,70.4,63.9,29.61,NNW,338,3.8,8.5,80,0.26,,,0.26,WUHU216HW,2013-07-20 00:46:00,
2013-07-19 20:47:00,70.2,63.7,29.61,North,0,1.8,8.5,80,0.26,,,0.26,WUHU216HW,2013-07-20 00:47:00,
2013-07-19 20:48:00,70.2,63.7,29.61,North,0,0.7,8.5,80,0.26,,,0.26,WUHU216HW,2013-07-20 00:48:00,
2013-07-19 20:49:00,70.2,64.1,29.61,NNE,23,1.6,8.5,81,0.26,,,0.26,WUHU216HW,2013-07-20 00:49:00,
2013-07-19 20:50:00,70.2,64.1,29.61,NNE,23,0.0,4.7,81,0.26,,,0.26,WUHU216HW,2013-07-20 00:50:00,
2013-07-19 20:51:00,70.2,64.1,29.61,ENE,68,0.2,4.7,81,0.26,,,0.26,WUHU216HW,2013-07-20 00:51:00,
2013-07-19 20:52:00,70.2,64.1,29.61,ENE,68,1.1,4.7,81,0.26,,,0.26,WUHU216HW,2013-07-20 00:52:00,
2013-07-19 20:53:00,70.2,64.1,29.62,ENE,68,0.2,4.7,81,0.26,,,0.26,WUHU216HW,2013-07-20 00:53:00,
2013-07-19 20:54:00,70.2,64.1,29.61,East,90,1.6,4.7,81,0.26,,,0.26,WUHU216HW,2013-07-20 00:54:00,
2013-07-19 20:55:00,70.0,63.9,29.61,East,90,0.0,4.7,81,0.26,,,0.26,WUHU216HW,2013-07-20 00:55:00,
2013-07-19 20:56:00,70.0,64.3,29.61,SE,135,0.7,3.8,82,0.26,,,0.26,WUHU216HW,2013-07-20 00:56:00,
2013-07-19 20:57:00,70.0,64.3,29.61,SSE,158,0.4,1.8,82,0.26,,,0.26,WUHU216HW,2013-07-20 00:57:00,
2013-07-19 20:58:00,70.0,64.3,29.61,North,0,0.4,1.6,82,0.26,,,0.26,WUHU216HW,2013-07-20 00:58:00,
2013-07-19 20:59:00,70.0,64.3,29.61,North,0,0.7,1.6,82,0.26,,,0.26,WUHU216HW,2013-07-20 00:59:00,